User: anonymous   Login
Location: Unspecified
(0.0000°N, 0.0000°E)
Time: 20:12:44
(UTC+00:00)
Language:

STARLINK-34932 - Orbit

View from above orbital plane
View from above orbital plane
View from above satellite
View from above satellite

Ground track
Ground track

The orbit is defined by the following mean orbital elements,

1 65179U          26145.61931942 +.00000000 +00000-0 +19596-3 0 00007
2 65179  97.4476  18.0592 0001739  85.9401 274.2025 15.05658033    07
Epoch (UTC): 25 May 2026 14:51:49
Eccentricity: 0.0001739
inclination: 97.4476°
perigee height: 548 km
apogee height: 551 km
right ascension of ascending node: 18.0592°
argument of perigee: 85.9401°
revolutions per day: 15.05658033
mean anomaly at epoch: 274.2025°

The dashed part of the orbit path shows where the satellite is in the earth's shadow,  

DLR